{"data":{"norad_id":52107,"epoch":"2026-05-25T03:12:26.952192Z","epoch_age_seconds":60535,"freshness":"FRESH","line1":"1 52107U 22029V   26145.13364528 -.00000169  00000+0  74824-5 0  9996","line2":"2 52107  53.2153  95.9507 0001425  83.4893 276.6262 15.08841478232327","mean_motion":15.08841478,"eccentricity":0.0001425,"inclination_deg":53.2153,"raan_deg":95.9507,"arg_perigee_deg":83.4893,"mean_anomaly_deg":276.6262,"bstar":7.4824e-6,"rev_number":23232,"period_min":95.437461191003,"perigee_km":538.75307400141,"apogee_km":540.72466862474,"semimajor_km":6917.8758713131,"source":"CELESTRAK","updated_at":"2026-05-25T13:38:17.072469Z"}}